EW5804 Weather Reports


time (UTC)temp
F
wind
direction
speed
knots
gust
knots
rain 1hr
in
rain 24hr
in
rain mn
in
humidity
%
barometer
mb
20260505184533 83 175 4.3 14.8 0.00 0.00 0.00 43 1014.9
20260505184252 83 261 4.3 14.8 0.00 0.00 0.00 41 1015.0
20260505183741 83 170 5.2 18.2 0.00 0.00 0.00 41 1014.9
20260505183014 83 309 6.1 18.2 0.00 0.00 0.00 41 1014.9
20260505182508 83 232 5.2 14.8 0.00 0.00 0.00 41 1014.9
20260505182003 83 206 5.2 14.8 0.00 0.00 0.00 41 1015.0
20260505181457 83 186 4.3 13.9 0.00 0.00 0.00 43 1015.1
20260505180955 82 155 3.5 10.4 0.00 0.00 0.00 43 1015.1
20260505180455 82 178 4.3 13.9 0.00 0.00 0.00 45 1015.1
20260505175954 82 182 6.1 15.6 0.00 0.00 0.00 40 1015.2
20260505175454 82 359 4.3 15.6 0.00 0.00 0.00 41 1015.2
20260505174955 83 184 4.3 12.2 0.00 0.00 0.00 41 1015.2
20260505174454 83 189 4.3 12.2 0.00 0.00 0.00 42 1015.3
20260505173955 83 205 5.2 14.8 0.00 0.00 0.00 42 1015.3
20260505173453 82 255 4.3 14.8 0.00 0.00 0.00 44 1015.4
20260505172953 82 298 4.3 13.0 0.00 0.00 0.00 42 1015.3
20260505172453 81 271 5.2 17.4 0.00 0.00 0.00 41 1015.3
20260505171953 81 135 6.1 17.4 0.00 0.00 0.00 42 1015.4
20260505171454 81 168 6.1 17.4 0.00 0.00 0.00 41 1015.3
20260505170953 82 257 4.3 16.5 0.00 0.00 0.00 41 1015.3
20260505170448 82 261 4.3 9.6 0.00 0.00 0.00 44 1015.3
20260505170001 82 282 2.6 8.7 0.00 0.00 0.00 44 1015.4
20260505165448 82 192 2.6 7.8 0.00 0.00 0.00 46 1015.6
20260505164949 81 227 4.3 9.6 0.00 0.00 0.00 45 1015.8
20260505164709 81 199 5.2 12.2 0.00 0.00 0.00 47 1015.9
20260505163948 80 197 5.2 12.2 0.00 0.00 0.00 45 1016.0
20260505163450 80 177 5.2 12.2 0.00 0.00 0.00 46 1015.9
20260505162949 80 292 5.2 12.2 0.00 0.00 0.00 45 1016.0
20260505162449 80 195 6.1 13.9 0.00 0.00 0.00 48 1016.0
20260505161950 80 178 5.2 13.9 0.00 0.00 0.00 47 1016.1
20260505161446 80 224 4.3 12.2 0.00 0.00 0.00 47 1016.1
20260505161216 79 237 4.3 12.2 0.00 0.00 0.00 48 1016.2
20260505160448 79 226 5.2 12.2 0.00 0.00 0.00 51 1016.3
20260505152935 78 244 4.3 12.2 0.00 0.00 0.00 50 1016.5
20260505152646 78 170 4.3 12.2 0.00 0.00 0.00 52 1016.5
20260505151924 77 228 5.2 12.2 0.00 0.00 0.00 51 1016.3
20260505151418 77 197 5.2 12.2 0.00 0.00 0.00 52 1016.4
20260505150912 77 203 4.3 13.0 0.00 0.00 0.00 52 1016.3
20260505150405 77 160 3.5 13.0 0.00 0.00 0.00 54 1016.2
20260505150127 76 217 4.3 11.3 0.00 0.00 0.00 53 1016.4
20260505140534 72 203 4.3 11.3 0.00 0.00 0.00 60 1016.5
20260505130253 68 203 3.5 10.4 0.00 0.00 0.00 66 1016.7
20260505124735 67 190 4.3 10.4 0.00 0.00 0.00 67 1016.4
20260505124452 66 259 3.5 10.4 0.00 0.00 0.00 68 1016.4
20260505123723 66 234 3.5 10.4 0.00 0.00 0.00 68 1016.2
20260505123449 65 211 3.5 10.4 0.00 0.00 0.00 69 1016.1
20260505122711 65 206 3.5 11.3 0.00 0.00 0.00 69 1016.2
20260505122205 65 222 3.5 11.3 0.00 0.00 0.00 69 1016.2
20260505121923 65 178 3.5 8.7 0.00 0.00 0.00 70 1016.2
20260505121416 64 244 3.5 9.6 0.00 0.00 0.00 70 1016.2
20260505120647 64 197 2.6 9.6 0.00 0.00 0.00 71 1016.3
20260505120141 64 209 2.6 7.8 0.00 0.00 0.00 71 1016.1
20260505115636 63 178 3.5 8.7 0.00 0.00 0.00 72 1016.1
20260505115612 63 163 3.5 8.7 0.00 0.00 0.00 72 1016.2
20260505114624 62 186 2.6 7.8 0.00 0.00 0.00 72 1016.1
20260505114117 62 199 3.5 9.6 0.00 0.00 0.00 73 1016.0
20260505113838 62 241 2.6 9.6 0.00 0.00 0.00 73 1015.9
20260505113105 61 191 2.6 7.8 0.00 0.00 0.00 74 1015.8
20260505112559 61 209 2.6 7.8 0.00 0.00 0.00 74 1015.8
20260505112053 60 205 2.6 6.1 0.00 0.00 0.00 75 1015.8
20260505111546 60 219 2.6 7.0 0.00 0.00 0.00 75 1015.8
20260505111041 60 328 3.5 7.8 0.00 0.00 0.00 75 1015.8
20260505110535 59 267 3.5 9.6 0.00 0.00 0.00 76 1015.7
20260505101941 58 222 1.7 4.3 0.00 0.00 0.00 77 1015.4
20260505101434 58 229 1.7 5.2 0.00 0.00 0.00 77 1015.5
20260505100929 58 239 1.7 5.2 0.00 0.00 0.00 77 1015.3
20260505100644 58 231 1.7 6.1 0.00 0.00 0.00 77 1015.3
20260505095917 58 224 2.6 6.1 0.00 0.00 0.00 77 1015.2
20260505095411 58 205 1.7 6.1 0.00 0.00 0.00 77 1015.2
20260505094906 58 231 1.7 8.7 0.00 0.00 0.00 77 1015.2
20260505094400 58 257 1.7 8.7 0.00 0.00 0.00 76 1015.1
20260505093853 58 197 1.7 6.1 0.00 0.00 0.00 77 1015.1
20260505093346 58 188 2.6 7.0 0.00 0.00 0.00 76 1015.0
20260505093327 58 202 1.7 7.0 0.00 0.00 0.00 76 1015.1
20260505092345 58 233 2.6 7.0 0.00 0.00 0.00 76 1014.9
20260505092102 58 238 1.7 9.6 0.00 0.00 0.00 76 1015.0
20260505091343 58 226 0.9 9.6 0.00 0.00 0.00 76 1015.0
20260505090841 59 203 1.7 7.0 0.00 0.00 0.00 76 1014.9
20260505090339 59 249 2.6 7.0 0.00 0.00 0.00 76 1014.9
20260505085838 59 197 1.7 7.0 0.00 0.00 0.00 75 1014.9
20260505085337 59 189 1.7 7.8 0.00 0.00 0.00 75 1015.0
20260505084837 59 227 2.6 7.8 0.00 0.00 0.00 75 1014.9
20260505084337 59 242 1.7 7.8 0.00 0.00 0.00 75 1015.0
20260505083833 59 230 2.6 7.8 0.00 0.00 0.00 75 1015.0
20260505083333 59 206 2.6 7.0 0.00 0.00 0.00 74 1014.9
20260505082834 60 302 2.6 7.0 0.00 0.00 0.00 74 1015.0
20260505082333 60 269 1.7 7.0 0.00 0.00 0.00 74 1015.0
20260505081834 60 211 1.7 4.3 0.00 0.00 0.00 74 1015.0
20260505081333 60 204 2.6 7.0 0.00 0.00 0.00 74 1014.9
20260505080828 60 281 2.6 7.0 0.00 0.00 0.00 74 1014.8
20260505080328 60 317 2.6 7.0 0.00 0.00 0.00 73 1014.9
20260505075828 60 235 1.7 6.1 0.00 0.00 0.00 73 1014.8
20260505075328 60 201 1.7 9.6 0.00 0.00 0.00 73 1014.7
20260505074828 61 249 2.6 9.6 0.00 0.00 0.00 73 1014.8
20260505074548 61 207 3.5 8.7 0.00 0.00 0.00 73 1014.8
20260505074055 61 236 2.6 8.7 0.00 0.00 0.00 73 1014.7
20260505073546 61 239 2.6 7.0 0.00 0.00 0.00 72 1014.8
20260505072827 61 195 2.6 6.1 0.00 0.00 0.00 72 1014.7
20260505072324 61 236 2.6 6.1 0.00 0.00 0.00 72 1014.7
20260505071824 61 169 2.6 7.0 0.00 0.00 0.00 72 1014.6
20260505071324 61 209 2.6 11.3 0.00 0.00 0.00 72 1014.7
20260505070823 61 219 3.5 11.3 0.00 0.00 0.00 72 1014.6
20260505070324 61 206 2.6 8.7 0.00 0.00 0.00 71 1014.5
20260505065823 62 175 2.6 7.8 0.00 0.00 0.00 71 1014.6
20260505065325 62 229 3.5 13.0 0.00 0.00 0.00 71 1014.5
20260505064823 62 317 3.5 13.0 0.00 0.00 0.00 71 1014.5
20260505064815 62 217 2.6 7.8 0.00 0.00 0.00 71 1014.5
20260505063824 62 247 2.6 7.8 0.00 0.00 0.00 70 1014.5
20260505063324 62 204 3.5 8.7 0.00 0.00 0.00 70 1014.5
20260505062823 62 277 3.5 8.7 0.00 0.00 0.00 70 1014.5
20260505062541 62 294 2.6 7.0 0.00 0.00 0.00 70 1014.6
20260505062049 62 207 3.5 7.8 0.00 0.00 0.00 70 1014.7
20260505061322 62 259 3.5 9.6 0.00 0.00 0.00 70 1014.6
20260505060821 62 213 3.5 9.6 0.00 0.00 0.00 70 1014.6
20260505060321 62 242 2.6 8.7 0.00 0.00 0.00 70 1014.6
20260505055821 63 126 2.6 8.7 0.00 0.00 0.00 70 1014.6
20260505055322 63 269 2.6 8.7 0.00 0.00 0.00 69 1014.7
20260505054821 63 201 2.6 9.6 0.00 0.00 0.00 69 1014.7
20260505054321 63 267 2.6 9.6 0.00 0.00 0.00 69 1014.7
20260505054036 63 236 3.5 8.7 0.00 0.00 0.00 69 1014.8
20260505053320 63 181 4.3 10.4 0.00 0.00 0.00 69 1014.8
20260505053039 64 184 3.5 10.4 0.00 0.00 0.00 68 1014.7
20260505052308 64 224 3.5 8.7 0.00 0.00 0.00 69 1014.7
20260505052021 64 217 3.5 8.7 0.00 0.00 0.00 69 1014.7
20260505051254 64 209 4.3 13.0 0.00 0.00 0.00 69 1014.7
20260505050748 64 239 3.5 13.0 0.00 0.00 0.00 68 1014.8
20260505050244 64 174 2.6 9.6 0.00 0.00 0.00 68 1014.9
20260505041648 65 203 4.3 12.2 0.00 0.00 0.00 67 1014.7
20260505041143 65 193 4.3 18.2 0.00 0.00 0.00 67 1014.6
20260505040637 65 205 4.3 18.2 0.00 0.00 0.00 67 1014.7
20260505040130 65 198 4.3 11.3 0.00 0.00 0.00 67 1014.6
20260505035626 65 141 4.3 11.3 0.00 0.00 0.00 67 1014.5
20260505035348 65 316 3.5 10.4 0.00 0.00 0.00 67 1014.5
20260505034614 65 240 3.5 10.4 0.00 0.00 0.00 67 1014.6
20260505034113 65 16 4.3 10.4 0.00 0.00 0.00 67 1014.5
20260505033614 65 236 4.3 13.0 0.00 0.00 0.00 67 1014.5
20260505033112 65 143 4.3 13.0 0.00 0.00 0.00 67 1014.5
20260505032611 65 153 4.3 9.6 0.00 0.00 0.00 68 1014.5
20260505032112 66 233 3.5 10.4 0.00 0.00 0.00 67 1014.5
20260505031612 66 242 3.5 10.4 0.00 0.00 0.00 67 1014.5
20260505031112 66 345 3.5 9.6 0.00 0.00 0.00 67 1014.4
20260505030612 66 182 4.3 11.3 0.00 0.00 0.00 67 1014.6
20260505030557 66 276 4.3 11.3 0.00 0.00 0.00 68 1014.4
20260505025609 66 240 3.5 11.3 0.00 0.00 0.00 68 1014.4
20260505025106 65 274 4.3 11.3 0.00 0.00 0.00 69 1014.4
20260505024606 65 206 3.5 10.4 0.00 0.00 0.00 68 1014.4
20260505024106 66 216 2.6 8.7 0.00 0.00 0.00 68 1014.3
20260505023606 66 138 2.6 9.6 0.00 0.00 0.00 68 1014.2
20260505023103 65 186 2.6 9.6 0.00 0.00 0.00 68 1014.2
20260505022603 65 164 1.7 7.8 0.00 0.00 0.00 68 1014.2
20260505022323 65 168 2.6 8.7 0.00 0.00 0.00 67 1014.2
20260505021602 65 201 3.5 8.7 0.00 0.00 0.00 66 1014.2
20260505021236 65 199 3.5 7.8 0.00 0.00 0.00 66 1014.1
20260505020516 65 185 2.6 7.8 0.00 0.00 0.00 66 1014.0
20260505020017 65 180 1.7 7.8 0.00 0.00 0.00 65 1014.0
20260505015516 65 245 1.7 7.0 0.00 0.00 0.00 66 1014.0
20260505015016 64 197 1.7 7.0 0.00 0.00 0.00 65 1013.9
20260505014508 64 30 1.7 5.2 0.00 0.00 0.00 65 1013.8
20260505014002 63 51 1.7 5.2 0.00 0.00 0.00 65 1013.9
20260505013455 63 73 0.9 4.3 0.00 0.00 0.00 64 1013.7
20260505013216 63 93 0.9 4.3 0.00 0.00 0.00 66 1013.8
20260505012443 63 221 0.0 0.9 0.00 0.00 0.00 66 1013.7
20260505011937 64 222 0.0 1.7 0.00 0.00 0.00 64 1013.7
20260505011435 64 222 0.0 1.7 0.00 0.00 0.00 63 1013.7
20260505011149 64 222 0.0 0.9 0.00 0.00 0.00 62 1013.6
20260505010421 65 221 0.0 0.9 0.00 0.00 0.00 61 1013.5
20260505005912 65 221 0.0 0.9 0.00 0.00 0.00 62 1013.4
20260505005406 66 222 0.0 0.9 0.00 0.00 0.00 61 1013.3
20260505004900 66 221 0.0 1.7 0.00 0.00 0.00 59 1013.3
20260505004356 67 221 0.0 1.7 0.00 0.00 0.00 59 1013.3
20260505003850 67 221 0.0 0.9 0.00 0.00 0.00 58 1013.3
20260505003343 68 221 0.0 1.7 0.00 0.00 0.00 57 1013.2
20260505002837 68 221 0.0 1.7 0.00 0.00 0.00 55 1013.2
20260505002331 69 221 0.0 3.5 0.00 0.00 0.00 55 1013.0
20260505001825 69 221 0.0 3.5 0.00 0.00 0.00 55 1012.9
20260505001319 70 232 0.9 2.6 0.00 0.00 0.00 55 1012.9
20260505000813 71 232 0.9 3.5 0.00 0.00 0.00 49 1012.8
20260505000310 71 237 0.9 4.3 0.00 0.00 0.00 49 1012.9
20260504235802 72 192 0.9 4.3 0.00 0.00 0.00 47 1013.0
20260504235255 72 236 1.7 4.3 0.00 0.00 0.00 46 1012.8
20260504234749 73 237 1.7 5.2 0.00 0.00 0.00 45 1012.7
20260504234242 73 201 1.7 5.2 0.00 0.00 0.00 45 1012.8
20260504233737 74 221 1.7 4.3 0.00 0.00 0.00 44 1012.7
20260504233231 74 228 1.7 4.3 0.00 0.00 0.00 43 1012.8
20260504232725 75 186 1.7 4.3 0.00 0.00 0.00 42 1012.6
20260504232219 75 222 2.6 9.6 0.00 0.00 0.00 41 1012.6
20260504231713 75 205 1.7 9.6 0.00 0.00 0.00 41 1012.7
20260504231206 76 228 1.7 8.7 0.00 0.00 0.00 40 1012.6
20260504230701 76 191 2.6 8.7 0.00 0.00 0.00 39 1012.6
20260504230358 77 278 2.6 7.0 0.00 0.00 0.00 40 1012.5
20260504230245 76 251 2.6 7.0 0.00 0.00 0.00 40 1012.6
20260504225142 77 195 1.7 6.1 0.00 0.00 0.00 41 1012.6
20260504224636 77 248 2.6 7.0 0.00 0.00 0.00 40 1012.6
20260504224131 77 265 2.6 9.6 0.00 0.00 0.00 39 1012.6
20260504223625 77 277 2.6 9.6 0.00 0.00 0.00 39 1012.6
20260504223119 77 193 2.6 9.6 0.00 0.00 0.00 42 1012.6
20260504222614 77 345 2.6 9.6 0.00 0.00 0.00 42 1012.5
20260504222108 77 220 3.5 8.7 0.00 0.00 0.00 39 1012.4
20260504221601 78 186 3.5 8.7 0.00 0.00 0.00 37 1012.4
20260504221055 78 204 3.5 8.7 0.00 0.00 0.00 36 1012.6
20260504220549 79 158 3.5 8.7 0.00 0.00 0.00 37 1012.5
20260504220056 79 338 3.5 11.3 0.00 0.00 0.00 37 1012.5
20260504215536 79 193 4.3 15.6 0.00 0.00 0.00 38 1012.5
20260504215031 79 185 4.3 15.6 0.00 0.00 0.00 36 1012.5
20260504214525 79 265 4.3 8.7 0.00 0.00 0.00 37 1012.4
20260504214240 79 249 3.5 7.8 0.00 0.00 0.00 37 1012.5
20260504213512 79 268 3.5 13.0 0.00 0.00 0.00 37 1012.5
20260504213007 79 265 4.3 13.0 0.00 0.00 0.00 37 1012.4
20260504212501 79 231 4.3 10.4 0.00 0.00 0.00 36 1012.5
20260504211955 79 312 4.3 9.6 0.00 0.00 0.00 37 1012.5
20260504211709 79 255 3.5 9.6 0.00 0.00 0.00 37 1012.5
20260504210944 79 182 3.5 8.7 0.00 0.00 0.00 36 1012.6
20260504210437 79 156 4.3 13.9 0.00 0.00 0.00 38 1012.6
20260504210154 79 272 4.3 13.9 0.00 0.00 0.00 37 1012.6
20260504205424 79 240 4.3 11.3 0.00 0.00 0.00 36 1012.6
20260504204919 79 309 3.5 10.4 0.00 0.00 0.00 36 1012.6
20260504204413 80 179 3.5 9.6 0.00 0.00 0.00 36 1012.6
20260504203908 79 226 3.5 10.4 0.00 0.00 0.00 39 1012.6
20260504203602 79 168 4.3 12.2 0.00 0.00 0.00 37 1012.7
20260504203448 79 201 3.5 12.2 0.00 0.00 0.00 39 1012.5
20260504202349 79 185 4.3 13.9 0.00 0.00 0.00 37 1012.7
20260504201844 79 221 4.3 13.9 0.00 0.00 0.00 36 1012.6
20260504201337 79 261 4.3 11.3 0.00 0.00 0.00 36 1012.6
20260504200831 79 284 4.3 12.2 0.00 0.00 0.00 36 1012.8
20260504200550 79 244 4.3 12.2 0.00 0.00 0.00 37 1012.9
20260504195832 79 247 3.5 10.4 0.00 0.00 0.00 36 1012.9
20260504195556 79 268 2.6 7.8 0.00 0.00 0.00 38 1012.8
20260504194831 79 254 3.5 8.7 0.00 0.00 0.00 37 1012.8
20260504194332 79 122 4.3 12.2 0.00 0.00 0.00 38 1012.8
20260504193831 79 164 4.3 12.2 0.00 0.00 0.00 39 1013.0
20260504193331 79 199 3.5 10.4 0.00 0.00 0.00 38 1013.1
20260504192830 79 68 4.3 8.7 0.00 0.00 0.00 35 1013.1
20260504192330 79 155 5.2 11.3 0.00 0.00 0.00 38 1013.3
20260504191831 79 168 5.2 11.3 0.00 0.00 0.00 40 1013.3
20260504191330 79 198 4.3 10.4 0.00 0.00 0.00 39 1013.3
20260504190830 78 263 3.5 12.2 0.00 0.00 0.00 39 1013.3
20260504190547 78 207 4.3 12.2 0.00 0.00 0.00 41 1013.4
20260504185829 78 318 4.3 9.6 0.00 0.00 0.00 38 1013.4
20260504185329 78 157 5.2 9.6 0.00 0.00 0.00 39 1013.5
20260504184830 78 187 4.3 15.6 0.00 0.00 0.00 43 1013.7